Location: Votelez
(50.0000°N, 15.0000°E)
Time: 10:31:32
(UTC+01:00)

ACS3 Solar Sail - Visible Passes

Search period start: 09 February 2026 00:00
Search period end: 19 February 2026 00:00
Orbit: 901 x 967 km, 97.2° (Epoch: 8 February)

Date Brightness Start Highest point End Pass type
(mag) Time Alt. Az. Time Alt. Az. Time Alt. Az.
9 Feb 4.3 02:33:36 10° N 02:33:52 11° N 02:33:52 11° N visible
10 Feb 4.2 02:46:19 10° N 02:46:44 12° N 02:46:44 12° N visible
11 Feb 4.1 02:59:01 10° N 02:59:34 13° N 02:59:34 13° N visible
12 Feb 4.0 03:11:41 10° N 03:12:21 13° N 03:12:21 13° N visible
13 Feb 4.0 03:24:22 10° N 03:25:06 13° N 03:25:06 13° N visible
14 Feb 4.4 01:53:49 10° NNE 01:54:02 11° NNE 01:54:02 11° NNE visible
14 Feb 3.9 03:37:03 10° N 03:37:47 13° N 03:37:47 13° N visible
15 Feb 4.3 02:06:12 10° NNE 02:06:41 12° NNE 02:06:41 12° NNE visible
15 Feb 3.9 03:49:43 10° N 03:50:27 13° NNW 03:50:27 13° NNW visible
16 Feb 4.2 02:18:36 10° NNE 02:19:18 14° NNE 02:19:18 14° NNE visible
16 Feb 3.9 04:02:26 10° NNW 04:03:03 12° NNW 04:03:03 12° NNW visible
17 Feb 4.1 02:30:58 10° N 02:31:52 15° N 02:31:52 15° N visible
17 Feb 3.9 04:15:12 10° NNW 04:15:37 11° NNW 04:15:37 11° NNW visible
18 Feb 4.0 02:43:19 10° N 02:44:23 16° N 02:44:23 16° N visible
